EB1RD-13 Weather Reports


time (UTC)temp
C
wind
direction
speed
KPH
gust
KPH
rain 1hr
cm
rain 24hr
cm
rain mn
cm
humidity
%
barometer
mb
20260902102611 26 76 3.2 6.4 0.00 0.00 0.00 43
20260902101609 26 84 4.8 9.7 0.00 0.00 0.00 41
20260902100607 26 45 1.6 3.2 0.00 0.00 0.00 43
20260902095625 26 45 3.2 6.4 0.00 0.00 0.00 44
20260902094603 26 10 3.2 4.8 0.00 0.00 0.00 42
20260902093601 26 97 1.6 4.8 0.00 0.00 0.00 47
20260902092600 25 77 1.6 4.8 0.00 0.00 0.00 51
20260902091558 25 40 3.2 8.0 0.00 0.00 0.00 50
20260902090555 23 312 1.6 4.8 0.00 0.00 0.00 53
20260902085554 23 118 0.0 4.8 0.00 0.00 0.00 53
20260902084552 24 339 1.6 4.8 0.00 0.00 0.00 52
20260902083630 23 90 1.6 3.2 0.00 0.00 0.00 54
20260902082548 23 90 0.0 4.8 0.00 0.00 0.00 54
20260902081546 23 72 1.6 4.8 0.00 0.00 0.00 55
20260902080544 22 0.0 1.6 0.00 0.00 0.00 56
20260902075542 22 43 1.6 4.8 0.00 0.00 0.00 58
20260902074540 21 80 1.6 3.2 0.00 0.00 0.00 62
20260902073538 20 91 1.6 3.2 0.00 0.00 0.00 63
20260902072536 20 37 3.2 6.4 0.00 0.00 0.00 64
20260902071534 20 76 1.6 3.2 0.00 0.00 0.00 72
20260902070532 18 84 1.6 3.2 0.00 0.00 0.00 77
20260902065530 17 87 1.6 4.8 0.00 0.00 0.00 80
20260902064528 17 95 3.2 6.4 0.00 0.00 0.00 80
20260902063526 17 76 1.6 4.8 0.00 0.00 0.00 81
20260902062524 16 68 0.0 3.2 0.00 0.00 0.00 82
20260902061522 16 90 1.6 4.8 0.00 0.00 0.00 82
20260902060520 16 0.0 1.6 0.00 0.00 0.00 81
20260902055518 16 91 1.6 4.8 0.00 0.00 0.00 81
20260902054516 16 95 3.2 4.8 0.00 0.00 0.00 81
20260902053614 16 73 1.6 4.8 0.00 0.00 0.00 81
20260902052612 16 90 1.6 4.8 0.00 0.00 0.00 81
20260902051610 16 84 1.6 6.4 0.00 0.00 0.00 81
20260902050608 16 99 4.8 6.4 0.00 0.00 0.00 81
20260902045606 16 95 3.2 6.4 0.00 0.00 0.00 81
20260902044604 17 95 1.6 3.2 0.00 0.00 0.00 80
20260902043602 17 90 3.2 6.4 0.00 0.00 0.00 80
20260902042600 17 111 3.2 6.4 0.00 0.00 0.00 80
20260902041558 17 0.0 1.6 0.00 0.00 0.00 80
20260902040556 17 68 1.6 3.2 0.00 0.00 0.00 80
20260902035554 17 0.0 0.0 0.00 0.00 0.00 80
20260902034553 17 0.0 1.6 0.00 0.00 0.00 80
20260902033550 17 0.0 1.6 0.00 0.00 0.00 80
20260902032548 17 0.0 0.0 0.00 0.00 0.00 80
20260902031546 17 0.0 1.6 0.00 0.00 0.00 80
20260902030544 17 90 0.0 3.2 0.00 0.00 0.00 80
20260902025542 17 90 0.0 3.2 0.00 0.00 0.00 80
20260902024540 17 45 1.6 3.2 0.00 0.00 0.00 79
20260902023539 17 45 0.0 3.2 0.00 0.00 0.00 79
20260902022537 17 0.0 1.6 0.00 0.00 0.00 79
20260902021535 17 73 1.6 3.2 0.00 0.00 0.00 79
20260902020613 17 45 3.2 3.2 0.00 0.00 0.00 78
20260902015530 17 52 3.2 6.4 0.00 0.00 0.00 77
20260902014528 18 97 3.2 4.8 0.00 0.00 0.00 77
20260902013527 18 81 4.8 6.4 0.00 0.00 0.00 76
20260902012525 18 77 1.6 4.8 0.00 0.00 0.00 76
20260902011543 18 49 1.6 3.2 0.00 0.00 0.00 74
20260902010520 18 0.0 1.6 0.00 0.00 0.00 74
20260902005519 19 90 0.0 3.2 0.00 0.00 0.00 74
20260902004517 19 0.0 0.0 0.00 0.00 0.00 75
20260902003516 18 0.0 0.0 0.00 0.00 0.00 75
20260902002613 18 0.0 0.0 0.00 0.00 0.00 75
20260902001611 18 0.0 1.6 0.00 0.00 0.00 76
20260902000609 18 45 3.2 3.2 0.00 0.00 0.00 76
20260901235607 18 45 1.6 3.2 0.00 0.00 0.00 76
20260901234606 18 64 1.6 4.8 0.00 0.00 0.00 75
20260901233604 18 45 1.6 3.2 0.00 0.00 0.00 75
20260901232601 18 45 3.2 3.2 0.00 0.00 0.00 74
20260901231641 19 45 1.6 3.2 0.00 0.00 0.00 74
20260901230617 18 75 0.0 3.2 0.00 0.00 0.00 74
20260901225555 18 45 1.6 4.8 0.00 0.00 0.00 73
20260901224553 18 45 1.6 4.8 0.00 0.00 0.00 73
20260901223611 19 55 1.6 3.2 0.00 0.00 0.00 73
20260901222549 19 51 1.6 4.8 0.00 0.00 0.00 72
20260901221547 19 45 1.6 3.2 0.00 0.00 0.00 72
20260901220545 19 45 3.2 3.2 0.00 0.00 0.00 71
20260901215543 19 48 1.6 3.2 0.00 0.00 0.00 71
20260901214541 19 0.0 3.2 0.00 0.00 0.00 71
20260901213539 19 0.0 0.0 0.00 0.00 0.00 71
20260901212537 19 0.0 0.0 0.00 0.00 0.00 71
20260901211535 19 0.0 0.0 0.00 0.00 0.00 71
20260901210533 19 0.0 1.6 0.00 0.00 0.00 71
20260901205551 19 0.0 1.6 0.00 0.00 0.00 70
20260901204529 20 0.0 1.6 0.00 0.00 0.00 70
20260901203527 20 30 0.0 3.2 0.00 0.00 0.00 70
20260901202525 20 45 0.0 3.2 0.00 0.00 0.00 69
20260901201523 20 0 1.6 3.2 0.00 0.00 0.00 67
20260901200541 20 0.0 1.6 0.00 0.00 0.00 67
20260901195519 20 45 1.6 4.8 0.00 0.00 0.00 67
20260901194537 20 45 3.2 3.2 0.00 0.00 0.00 66
20260901193515 20 90 0.0 3.2 0.00 0.00 0.00 65
20260901192633 20 65 1.6 4.8 0.00 0.00 0.00 65
20260901191611 21 53 1.6 3.2 0.00 0.00 0.00 64
20260901190610 21 49 1.6 4.8 0.00 0.00 0.00 62
20260901185607 21 68 1.6 3.2 0.00 0.00 0.00 62
20260901184605 21 30 3.2 4.8 0.00 0.00 0.00 61
20260901183605 21 33 4.8 8.0 0.00 0.00 0.00 61
20260901182601 21 33 3.2 6.4 0.00 0.00 0.00 60
20260901181559 21 0 3.2 6.4 0.00 0.00 0.00 60
20260901180557 22 45 3.2 6.4 0.00 0.00 0.00 58
20260901175555 22 30 4.8 8.0 0.00 0.00 0.00 58
20260901174553 22 60 4.8 11.3 0.00 0.00 0.00 58
20260901173551 22 29 6.4 11.3 0.00 0.00 0.00 57
20260901172549 22 316 4.8 9.7 0.00 0.00 0.00 56
20260901171547 22 7 8.0 17.7 0.00 0.00 0.00 55
20260901170545 23 41 6.4 12.9 0.00 0.00 0.00 52
20260901165543 25 353 4.8 9.7 0.00 0.00 0.00 51
20260901164541 23 66 8.0 12.9 0.00 0.00 0.00 52
20260901163539 25 19 8.0 17.7 0.00 0.00 0.00 49
20260901162537 25 353 9.7 19.3 0.00 0.00 0.00 48
20260901161535 25 27 9.7 16.1 0.00 0.00 0.00 50
20260901160535 25 270 9.7 14.5 0.00 0.00 0.00 46
20260901155531 25 45 8.0 14.5 0.00 0.00 0.00 48
20260901154530 25 33 8.0 14.5 0.00 0.00 0.00 47
20260901153527 25 304 8.0 14.5 0.00 0.00 0.00 48
20260901152546 25 26 12.9 17.7 0.00 0.00 0.00 46
20260901151524 25 30 8.0 19.3 0.00 0.00 0.00 46
20260901150522 25 54 8.0 16.1 0.00 0.00 0.00 47
20260901145519 25 37 9.7 19.3 0.00 0.00 0.00 43
20260901144518 26 21 8.0 12.9 0.00 0.00 0.00 41
20260901143536 26 292 8.0 17.7 0.00 0.00 0.00 42
20260901142614 26 43 6.4 12.9 0.00 0.00 0.00 42
20260901141612 25 6 4.8 12.9 0.00 0.00 0.00 43
20260901140611 25 0 3.2 4.8 0.00 0.00 0.00 43
20260901135608 25 33 6.4 14.5 0.00 0.00 0.00 45
20260901134606 26 55 8.0 19.3 0.00 0.00 0.00 41
20260901133604 26 67 8.0 12.9 0.00 0.00 0.00 39
20260901132622 25 40 3.2 8.0 0.00 0.00 0.00 42
20260901131600 26 51 9.7 20.9 0.00 0.00 0.00 39
20260901130558 25 49 6.4 11.3 0.00 0.00 0.00 41
20260901125556 25 124 4.8 9.7 0.00 0.00 0.00 43
20260901124554 27 33 6.4 16.1 0.00 0.00 0.00 34
20260901123552 27 25 1.6 4.8 0.00 0.00 0.00 33
20260901122550 26 121 3.2 8.0 0.00 0.00 0.00 36
20260901121548 25 176 1.6 3.2 0.00 0.00 0.00 40
20260901120606 25 90 3.2 6.4 0.00 0.00 0.00 41
20260901115544 25 256 3.2 8.0 0.00 0.00 0.00 40
20260901114542 25 6 1.6 4.8 0.00 0.00 0.00 42
20260901113540 25 236 3.2 6.4 0.00 0.00 0.00 40
20260901112538 26 216 3.2 6.4 0.00 0.00 0.00 34
20260901111536 27 131 3.2 6.4 0.00 0.00 0.00 34
20260901110554 26 332 1.6 6.4 0.00 0.00 0.00 37
20260901105532 25 294 1.6 6.4 0.00 0.00 0.00 40
20260901104530 25 91 1.6 4.8 0.00 0.00 0.00 41
20260901103528 25 174 3.2 9.7 0.00 0.00 0.00 41